Time,TemperatureF,DewpointF,PressureIn,WindDirection,WindDirectionDegrees,WindSpeedMPH,WindSpeedGustMPH,Humidity,HourlyPrecipIn,Conditions,Clouds,dailyrainin,SolarRadiationWatts/m^2,SoftwareType,DateUTC
2013-02-28 00:01:00,37.0,24.0,-100.00,SW,231,9.0,14.0,59,0.00,,,-99.99,1.000000,,2013-02-28 08:01:00,
2013-02-28 00:11:00,37.0,24.0,-100.00,SW,231,9.0,14.0,59,0.00,,,-99.99,1.000000,,2013-02-28 08:11:00,
2013-02-28 00:42:00,36.0,26.0,-100.00,WSW,237,8.0,14.0,67,0.00,,,0.00,1.000000,,2013-02-28 08:42:00,
2013-02-28 00:53:00,36.0,26.0,-100.00,WSW,237,8.0,14.0,67,0.00,,,0.00,1.000000,,2013-02-28 08:53:00,
2013-02-28 01:03:00,36.0,26.0,-100.00,WSW,237,8.0,14.0,67,0.00,,,0.00,1.000000,,2013-02-28 09:03:00,
2013-02-28 01:11:00,36.0,26.0,-100.00,WSW,237,8.0,14.0,67,0.00,,,0.00,1.000000,,2013-02-28 09:11:00,
2013-02-28 01:42:00,36.0,24.0,-100.00,NNE,13,0.0,8.0,62,0.00,,,0.00,1.000000,,2013-02-28 09:42:00,
2013-02-28 01:52:00,36.0,24.0,-100.00,NNE,13,0.0,8.0,62,0.00,,,0.00,1.000000,,2013-02-28 09:52:00,
2013-02-28 02:01:00,36.0,24.0,-100.00,NNE,13,0.0,8.0,62,0.00,,,0.00,1.000000,,2013-02-28 10:01:00,
2013-02-28 02:11:00,36.0,24.0,-100.00,NNE,13,0.0,8.0,62,0.00,,,0.00,1.000000,,2013-02-28 10:11:00,
2013-02-28 02:42:00,36.0,25.0,-100.00,East,80,2.0,4.0,63,0.00,,,0.00,1.000000,,2013-02-28 10:42:00,
2013-02-28 02:52:00,36.0,25.0,-100.00,East,80,2.0,4.0,63,0.00,,,0.00,1.000000,,2013-02-28 10:52:00,
2013-02-28 03:01:00,36.0,25.0,-100.00,East,80,2.0,4.0,63,0.00,,,0.00,1.000000,,2013-02-28 11:01:00,
2013-02-28 03:11:00,36.0,25.0,-100.00,East,80,2.0,4.0,63,0.00,,,0.00,1.000000,,2013-02-28 11:11:00,
2013-02-28 03:32:00,36.0,24.0,-100.00,SW,218,3.0,9.0,61,0.00,,,0.00,1.000000,,2013-02-28 11:32:00,
2013-02-28 03:42:00,36.0,24.0,-100.00,SW,218,3.0,9.0,61,0.00,,,0.00,1.000000,,2013-02-28 11:42:00,
2013-02-28 03:52:00,36.0,24.0,-100.00,SW,218,3.0,9.0,61,0.00,,,0.00,1.000000,,2013-02-28 11:52:00,
2013-02-28 04:01:00,36.0,24.0,-100.00,SW,218,3.0,9.0,61,0.00,,,0.00,1.000000,,2013-02-28 12:01:00,
2013-02-28 04:11:00,36.0,24.0,-100.00,SW,218,3.0,9.0,61,0.00,,,0.00,1.000000,,2013-02-28 12:11:00,
2013-02-28 04:32:00,36.0,25.0,-100.00,SSW,199,4.0,9.0,64,0.00,,,0.00,1.000000,,2013-02-28 12:32:00,
2013-02-28 04:42:00,36.0,25.0,-100.00,SSW,199,4.0,9.0,64,0.00,,,0.00,1.000000,,2013-02-28 12:42:00,
2013-02-28 04:52:00,36.0,25.0,-100.00,SSW,199,4.0,9.0,64,0.00,,,0.00,1.000000,,2013-02-28 12:52:00,
2013-02-28 05:01:00,36.0,25.0,-100.00,SSW,199,4.0,9.0,64,0.00,,,0.00,1.000000,,2013-02-28 13:01:00,
2013-02-28 05:11:00,36.0,25.0,-100.00,SSW,199,4.0,9.0,64,0.00,,,-99.99,1.000000,,2013-02-28 13:11:00,
2013-02-28 05:42:00,36.0,29.0,-100.00,SW,234,5.0,15.0,74,0.00,,,0.00,1.000000,,2013-02-28 13:42:00,
2013-02-28 05:52:00,36.0,29.0,-100.00,SW,234,5.0,15.0,74,0.00,,,0.00,1.000000,,2013-02-28 13:52:00,
2013-02-28 06:01:00,36.0,29.0,-100.00,SW,234,5.0,15.0,74,0.00,,,0.00,1.000000,,2013-02-28 14:01:00,
2013-02-28 06:11:00,36.0,29.0,-100.00,SW,234,5.0,15.0,74,0.00,,,0.00,1.000000,,2013-02-28 14:11:00,
2013-02-28 06:32:00,32.0,31.0,-100.00,SW,223,8.0,14.0,97,0.00,,,0.00,1.000000,,2013-02-28 14:32:00,
2013-02-28 06:42:00,32.0,31.0,-100.00,SW,223,8.0,14.0,97,0.00,,,0.00,1.000000,,2013-02-28 14:42:00,
2013-02-28 06:52:00,32.0,31.0,-100.00,SW,223,8.0,14.0,97,0.00,,,0.00,1.000000,,2013-02-28 14:52:00,
2013-02-28 07:02:00,32.0,31.0,-100.00,SW,223,8.0,14.0,97,0.00,,,0.00,1.000000,,2013-02-28 15:02:00,
2013-02-28 07:11:00,32.0,31.0,-100.00,SW,223,8.0,14.0,97,0.00,,,0.00,1.000000,,2013-02-28 15:11:00,
2013-02-28 07:32:00,32.0,32.0,-100.00,SW,232,8.0,14.0,98,0.00,,,0.00,8.000000,,2013-02-28 15:32:00,
2013-02-28 07:42:00,32.0,32.0,-100.00,SW,232,8.0,14.0,98,0.00,,,0.00,8.000000,,2013-02-28 15:42:00,
2013-02-28 07:52:00,32.0,32.0,-100.00,SW,232,8.0,14.0,98,0.00,,,0.00,8.000000,,2013-02-28 15:52:00,
2013-02-28 08:01:00,32.0,32.0,-100.00,SW,232,8.0,14.0,98,0.00,,,0.00,8.000000,,2013-02-28 16:01:00,
2013-02-28 08:11:00,32.0,32.0,-100.00,SW,232,8.0,14.0,98,0.00,,,0.00,8.000000,,2013-02-28 16:11:00,
2013-02-28 08:32:00,33.0,32.0,-100.00,SW,220,7.0,13.0,97,0.00,,,0.00,55.000000,,2013-02-28 16:32:00,
2013-02-28 08:42:00,33.0,32.0,-100.00,SW,220,7.0,13.0,97,0.00,,,0.00,55.000000,,2013-02-28 16:42:00,
2013-02-28 08:52:00,33.0,32.0,-100.00,SW,220,7.0,13.0,97,0.00,,,0.00,55.000000,,2013-02-28 16:52:00,
2013-02-28 09:01:00,33.0,32.0,-100.00,SW,220,7.0,13.0,97,0.00,,,0.00,55.000000,,2013-02-28 17:01:00,
2013-02-28 09:11:00,33.0,32.0,-100.00,SW,220,7.0,13.0,97,0.00,,,0.00,55.000000,,2013-02-28 17:11:00,
2013-02-28 09:42:00,33.0,32.0,-100.00,SW,228,7.0,15.0,96,0.05,,,0.05,90.000000,,2013-02-28 17:42:00,
2013-02-28 09:52:00,33.0,32.0,-100.00,SW,228,7.0,15.0,96,0.05,,,0.05,90.000000,,2013-02-28 17:52:00,
2013-02-28 10:01:00,33.0,32.0,-100.00,SW,228,7.0,15.0,96,0.05,,,0.05,90.000000,,2013-02-28 18:01:00,
2013-02-28 10:11:00,33.0,32.0,-100.00,SW,228,7.0,15.0,96,0.05,,,0.05,90.000000,,2013-02-28 18:11:00,
2013-02-28 10:42:00,33.0,32.0,-100.00,SW,228,9.0,14.0,96,0.03,,,0.08,117.000000,,2013-02-28 18:42:00,
2013-02-28 10:52:00,33.0,32.0,-100.00,SW,228,9.0,14.0,96,0.03,,,0.08,117.000000,,2013-02-28 18:52:00,
2013-02-28 11:01:00,33.0,32.0,-100.00,SW,228,9.0,14.0,96,0.03,,,0.08,117.000000,,2013-02-28 19:01:00,
2013-02-28 11:11:00,33.0,32.0,-100.00,SW,228,9.0,14.0,96,0.03,,,0.08,117.000000,,2013-02-28 19:11:00,
2013-02-28 11:42:00,33.0,32.0,-100.00,SW,231,7.0,14.0,96,0.06,,,0.14,145.000000,,2013-02-28 19:42:00,
2013-02-28 11:52:00,33.0,32.0,-100.00,SW,231,7.0,14.0,96,0.06,,,0.14,145.000000,,2013-02-28 19:52:00,
2013-02-28 12:01:00,33.0,32.0,-100.00,SW,231,7.0,14.0,96,0.06,,,0.14,145.000000,,2013-02-28 20:01:00,
2013-02-28 12:11:00,33.0,32.0,-100.00,SW,231,7.0,14.0,96,0.06,,,0.14,145.000000,,2013-02-28 20:11:00,
2013-02-28 12:32:00,33.0,32.0,-100.00,SW,225,9.0,13.0,96,0.04,,,0.18,101.000000,,2013-02-28 20:32:00,
2013-02-28 12:42:00,33.0,32.0,-100.00,SW,225,9.0,13.0,96,0.04,,,0.18,101.000000,,2013-02-28 20:42:00,
2013-02-28 12:52:00,33.0,32.0,-100.00,SW,225,9.0,13.0,96,0.04,,,0.18,101.000000,,2013-02-28 20:52:00,
2013-02-28 13:01:00,33.0,32.0,-100.00,SW,225,9.0,13.0,96,0.04,,,0.18,101.000000,,2013-02-28 21:01:00,
2013-02-28 13:11:00,33.0,32.0,-100.00,SW,225,9.0,13.0,96,0.04,,,0.18,101.000000,,2013-02-28 21:11:00,
2013-02-28 13:32:00,33.0,32.0,-100.00,SW,225,7.0,15.0,96,0.03,,,0.21,133.000000,,2013-02-28 21:32:00,
2013-02-28 13:42:00,33.0,32.0,-100.00,SW,225,7.0,15.0,96,0.03,,,0.21,133.000000,,2013-02-28 21:42:00,
2013-02-28 13:52:00,33.0,32.0,-100.00,SW,225,7.0,15.0,96,0.03,,,0.21,133.000000,,2013-02-28 21:52:00,
2013-02-28 14:01:00,33.0,32.0,-100.00,SW,225,7.0,15.0,96,0.03,,,0.21,133.000000,,2013-02-28 22:01:00,
2013-02-28 14:11:00,33.0,32.0,-100.00,SW,225,7.0,15.0,96,0.03,,,0.21,133.000000,,2013-02-28 22:11:00,
2013-02-28 14:42:00,34.0,33.0,-100.00,SW,233,9.0,12.0,96,0.08,,,0.29,135.000000,,2013-02-28 22:42:00,
2013-02-28 14:52:00,34.0,33.0,-100.00,SW,233,9.0,12.0,96,0.08,,,0.29,135.000000,,2013-02-28 22:52:00,
2013-02-28 15:01:00,34.0,33.0,-100.00,SW,233,9.0,12.0,96,0.08,,,0.29,135.000000,,2013-02-28 23:01:00,
2013-02-28 15:11:00,34.0,33.0,-100.00,SW,233,9.0,12.0,96,0.08,,,0.29,135.000000,,2013-02-28 23:11:00,
2013-02-28 15:32:00,34.0,33.0,-100.00,WSW,243,7.0,11.0,97,0.09,,,0.38,91.000000,,2013-02-28 23:32:00,
2013-02-28 15:42:00,34.0,33.0,-100.00,WSW,243,7.0,11.0,97,0.09,,,0.38,91.000000,,2013-02-28 23:42:00,
2013-02-28 15:52:00,34.0,33.0,-100.00,WSW,243,7.0,11.0,97,0.09,,,0.38,91.000000,,2013-02-28 23:52:00,
2013-02-28 16:01:00,34.0,33.0,-100.00,WSW,243,7.0,11.0,97,0.09,,,0.38,91.000000,,2013-03-01 00:01:00,
2013-02-28 16:11:00,34.0,33.0,-100.00,WSW,243,7.0,11.0,97,0.09,,,0.38,91.000000,,2013-03-01 00:11:00,
2013-02-28 16:32:00,35.0,34.0,-100.00,SW,236,6.0,11.0,97,0.06,,,0.44,55.000000,,2013-03-01 00:32:00,
2013-02-28 16:42:00,35.0,34.0,-100.00,SW,236,6.0,11.0,97,0.06,,,0.44,55.000000,,2013-03-01 00:42:00,
2013-02-28 16:52:00,35.0,34.0,-100.00,SW,236,6.0,11.0,97,0.06,,,0.44,55.000000,,2013-03-01 00:52:00,
2013-02-28 17:01:00,35.0,34.0,-100.00,SW,236,6.0,11.0,97,0.06,,,0.44,55.000000,,2013-03-01 01:01:00,
2013-02-28 17:11:00,35.0,34.0,-100.00,SW,236,6.0,11.0,97,0.06,,,0.44,55.000000,,2013-03-01 01:11:00,
2013-02-28 17:42:00,35.0,34.0,-100.00,SW,220,6.0,10.0,97,0.05,,,0.49,20.000000,,2013-03-01 01:42:00,
2013-02-28 17:52:00,35.0,34.0,-100.00,SW,220,6.0,10.0,97,0.05,,,0.49,20.000000,,2013-03-01 01:52:00,
2013-02-28 18:01:00,35.0,34.0,-100.00,SW,220,6.0,10.0,97,0.05,,,0.49,20.000000,,2013-03-01 02:01:00,
2013-02-28 18:11:00,35.0,34.0,-100.00,SW,220,6.0,10.0,97,0.05,,,0.49,20.000000,,2013-03-01 02:11:00,
2013-02-28 18:32:00,35.0,34.0,-100.00,SSW,209,8.0,14.0,98,0.03,,,0.52,2.000000,,2013-03-01 02:32:00,
2013-02-28 18:42:00,35.0,34.0,-100.00,SSW,209,8.0,14.0,98,0.03,,,0.52,2.000000,,2013-03-01 02:42:00,
2013-02-28 18:52:00,35.0,34.0,-100.00,SSW,209,8.0,14.0,98,0.03,,,0.52,2.000000,,2013-03-01 02:52:00,
2013-02-28 19:01:00,35.0,34.0,-100.00,SSW,209,8.0,14.0,98,0.03,,,0.52,2.000000,,2013-03-01 03:01:00,
2013-02-28 19:11:00,35.0,34.0,-100.00,SSW,209,8.0,14.0,98,0.03,,,0.52,2.000000,,2013-03-01 03:11:00,
2013-02-28 19:32:00,35.0,34.0,-100.00,SSW,213,4.0,12.0,98,0.02,,,0.54,1.000000,,2013-03-01 03:32:00,
2013-02-28 19:42:00,35.0,34.0,-100.00,SSW,213,4.0,12.0,98,0.02,,,0.54,1.000000,,2013-03-01 03:42:00,
2013-02-28 19:52:00,35.0,34.0,-100.00,SSW,213,4.0,12.0,98,0.02,,,0.54,1.000000,,2013-03-01 03:52:00,
2013-02-28 20:01:00,35.0,34.0,-100.00,SSW,213,4.0,12.0,98,0.02,,,0.54,1.000000,,2013-03-01 04:01:00,
2013-02-28 20:11:00,35.0,34.0,-100.00,SSW,213,4.0,12.0,98,0.02,,,0.54,1.000000,,2013-03-01 04:11:00,
2013-02-28 20:42:00,35.0,35.0,-100.00,SW,235,3.0,11.0,99,0.04,,,0.58,1.000000,,2013-03-01 04:42:00,
2013-02-28 20:52:00,35.0,35.0,-100.00,SW,235,3.0,11.0,99,0.04,,,0.58,1.000000,,2013-03-01 04:52:00,
2013-02-28 21:01:00,35.0,35.0,-100.00,SW,235,3.0,11.0,99,0.04,,,0.58,1.000000,,2013-03-01 05:01:00,
2013-02-28 21:11:00,35.0,35.0,-100.00,SW,235,3.0,11.0,99,0.04,,,0.58,1.000000,,2013-03-01 05:11:00,
2013-02-28 21:33:00,35.0,35.0,-100.00,NNE,31,2.0,4.0,99,0.00,,,0.58,1.000000,,2013-03-01 05:33:00,
2013-02-28 21:42:00,35.0,35.0,-100.00,NNE,31,2.0,4.0,99,0.00,,,0.58,1.000000,,2013-03-01 05:42:00,
2013-02-28 21:52:00,35.0,35.0,-100.00,NNE,31,2.0,4.0,99,0.00,,,0.58,1.000000,,2013-03-01 05:52:00,
2013-02-28 22:02:00,35.0,35.0,-100.00,NNE,31,2.0,4.0,99,0.00,,,0.58,1.000000,,2013-03-01 06:02:00,
2013-02-28 22:11:00,35.0,35.0,-100.00,NNE,31,2.0,4.0,99,0.00,,,0.58,1.000000,,2013-03-01 06:11:00,
2013-02-28 22:32:00,35.0,35.0,-100.00,WNW,292,2.0,5.0,99,0.02,,,0.60,1.000000,,2013-03-01 06:32:00,
2013-02-28 22:42:00,35.0,35.0,-100.00,WNW,292,2.0,5.0,99,0.02,,,0.60,1.000000,,2013-03-01 06:42:00,
2013-02-28 22:52:00,35.0,35.0,-100.00,WNW,292,2.0,5.0,99,0.02,,,0.60,1.000000,,2013-03-01 06:52:00,
2013-02-28 23:01:00,35.0,35.0,-100.00,WNW,292,2.0,5.0,99,0.02,,,0.60,1.000000,,2013-03-01 07:01:00,
2013-02-28 23:11:00,35.0,35.0,-100.00,WNW,292,2.0,5.0,99,0.02,,,0.60,1.000000,,2013-03-01 07:11:00,
2013-02-28 23:32:00,35.0,34.0,-100.00,SW,232,4.0,7.0,98,0.01,,,0.61,1.000000,,2013-03-01 07:32:00,
2013-02-28 23:42:00,35.0,34.0,-100.00,SW,232,4.0,7.0,98,0.01,,,0.61,1.000000,,2013-03-01 07:42:00,
2013-02-28 23:52:00,35.0,34.0,-100.00,SW,232,4.0,7.0,98,0.01,,,0.61,1.000000,,2013-03-01 07:52:00,